sat.trackr.live / text

‹ back to catalog

STARLINK-3362

NORAD 51108 · 2022-005E

PAYLOAD ACTIVE UNKNOWN

§ Identity

Operator
Country
US
Launch date
2022-01-19
Launch site
AFETR
Launch vehicle
Mass (kg)
RCS (m²)

Purposes: comms

External: N2YO · Heavens-Above · Gunter

§ Orbital elements

Epoch: 2026-09-20T03:29:20.082912Z

Period
93.79 min
Inclination
53.1599°
Eccentricity
0.0001207
Mean motion
15.35395359 rev/d
Perigee alt
458.9 km
Apogee alt
460.6 km
Semi-major
6,837.9 km
B*
3.1305e-5
RAAN
127.3243°
Arg perigee
95.7633°
Mean anomaly
264.3508°
Rev number
25,835

§ Raw data

STARLINK-33621 51108U 22005E   26263.14537133  .00000711  00000+0  31305-4 0  99942 51108  53.1599 127.3243 0001207  95.7633 264.3508 15.35395359258353

JSON: /api/v1/satellites/51108 · /tle

For live sub-satellite position, see the globe view (requires WebGL).

§ Visibility from observer

Set your observer location to see the next 7 days of passes ≥ 10°. The values pass through the URL so the page stays shareable.

No JS? Fill the form by hand. The geolocation button needs JavaScript.